This demonstration page uses our WeatherBlox Daily Observations layout. Learn more.

Left ArrowRight Arrow

Hourly Observations for May 25, 2021

Temp ( °F °C ) Dew Point ( °F °C ) Humidity (%) Winds ( mph kmh ) Pressure ( in mb ) Visibility ( mi km ) Precip ( " mm )
12:15 am 00:15 Clear 68 19.8 59 14.8 73 73 Calm 30.12 1020 10 16 0.00 0.00
12:35 am 00:35 Clear 68 19.9 59 15.2 74 74 WSW 3 6 30.12 1020 10 16 0.00 0.00
12:55 am 00:55 Clear 68 20.2 59 14.8 71 71 SSW 5 7 30.12 1020 10 16 0.00 0.00
1:15 am 01:15 Clear 67 19.7 59 14.8 73 73 SW 3 6 30.12 1020 10 16 0.00 0.00
1:35 am 01:35 Clear 67 19.6 58 14.7 73 73 SW 3 6 30.11 1020 10 16 0.00 0.00
1:55 am 01:55 Clear 67 19.7 58 14.7 73 73 SSW 3 6 30.11 1020 10 16 0.00 0.00
2:15 am 02:15 Clear 66 18.9 58 14.6 76 76 SW 5 7 30.11 1020 10 16 0.00 0.00
2:35 am 02:35 Clear 66 18.9 59 14.8 77 77 Calm 30.11 1020 10 16 0.00 0.00
2:55 am 02:55 Clear 64 18 59 15.1 83 83 Calm 30.11 1020 10 16 0.00 0.00
3:15 am 03:15 Clear 64 17.6 59 15.1 85 85 Calm 30.10 1019 10 16 0.00 0.00
3:35 am 03:35 Clear 63 17 59 15 88 88 Calm 30.11 1020 10 16 0.00 0.00
3:55 am 03:55 Clear 62 16.6 59 14.9 90 90 SSE 3 6 30.11 1020 10 16 0.00 0.00
4:15 am 04:15 Clear 62 16.6 59 15 90 90 Calm 30.11 1020 10 16 0.00 0.00
4:35 am 04:35 Clear 62 16.5 58 14.7 89 89 Calm 30.10 1019 10 16 0.00 0.00
4:55 am 04:55 Clear 62 16.5 58 14.7 89 89 Calm 30.11 1020 10 16 0.00 0.00
5:15 am 05:15 Clear 61 16.2 58 14.5 90 90 Calm 30.10 1019 10 16 0.00 0.00
5:35 am 05:35 Clear 62 16.6 58 14.6 88 88 S 3 6 30.10 1019 10 16 0.00 0.00
5:55 am 05:55 Clear 62 16.7 58 14.5 87 87 S 5 7 30.10 1019 10 16 0.00 0.00
6:15 am 06:15 Clear 63 17 58 14.5 85 85 S 6 9 30.11 1020 10 16 0.00 0.00
6:35 am 06:35 Sunny 63 17.3 58 14.5 84 84 S 6 9 30.11 1019 10 16 0.00 0.00
6:55 am 06:55 Sunny 64 17.5 58 14.6 83 83 S 5 7 30.11 1020 10 16 0.00 0.00
7:15 am 07:15 Sunny 65 18.4 59 15.1 81 81 SSW 3 6 30.12 1020 10 16 0.00 0.00
7:35 am 07:35 Sunny 67 19.7 60 15.4 76 76 SSW 3 6 30.12 1020 10 16 0.00 0.00
7:55 am 07:55 Partly Cloudy 69 20.5 60 15.3 72 72 SSW 5 7 30.11 1020 10 16 0.00 0.00
8:15 am 08:15 Sunny 71 21.9 60 15.5 67 67 SSW 8 13 30.11 1020 10 16 0.00 0.00
8:35 am 08:35 Mostly Cloudy 73 23 60 15.8 64 64 SSW 8 13 30.11 1020 10 16 0.00 0.00
8:55 am 08:55 Mostly Cloudy 73 23 60 15.8 64 64 SSW 7 11 30.11 1020 10 16 0.00 0.00
9:15 am 09:15 Partly Cloudy 76 24.2 61 16.2 61 61 SW 8 13 30.10 1019 10 16 0.00 0.00
9:35 am 09:35 Sunny 77 25 62 16.5 59 59 WSW 8 13 30.10 1019 10 16 0.00 0.00
9:55 am 09:55 Sunny 79 26 61 16.3 55 55 WSW 9 15 30.10 1019 10 16 0.00 0.00
10:15 am 10:15 Sunny 79 26.3 61 16.1 54 54 WSW 12 19 30.10 1019 10 16 0.00 0.00
10:35 am 10:35 Sunny 79 26 61 16.2 55 55 WSW 7 11 30.09 1019 10 16 0.00 0.00
10:55 am 10:55 Sunny 81 27 61 16.3 52 52 SW 12 19 30.08 1019 10 16 0.00 0.00
11:15 am 11:15 Sunny 82 27.8 60 15.6 47 47 SW 14 22 30.08 1019 10 16 0.00 0.00
11:35 am 11:35 Sunny 83 28.2 60 15.3 45 45 SW 10 17 30.08 1019 10 16 0.00 0.00
11:55 am 11:55 Sunny 83 28.6 60 15.4 45 45 SW 13 20 30.08 1019 10 16 0.00 0.00
12:15 pm 12:15 Partly Cloudy 83 28.6 59 15.1 44 44 WSW 17 28 30.08 1019 10 16 0.00 0.00
12:35 pm 12:35 Partly Cloudy 83 28.5 59 15.2 44 44 WSW 17 28 30.08 1019 10 16 0.00 0.00
12:55 pm 12:55 Sunny 82 28 60 15.4 46 46 WSW 13 20 30.07 1018 7 11 0.00 0.00
1:15 pm 13:15 Partly Cloudy 83 28.6 60 15.4 45 45 SW 15 24 30.07 1018 10 16 0.00 0.00
1:35 pm 13:35 Mostly Cloudy 85 29.2 60 15.4 43 43 WSW 17 28 30.06 1018 10 16 0.00 0.00
1:55 pm 13:55 Mostly Cloudy 83 28.5 60 15.5 45 45 SW 15 24 30.06 1018 10 16 0.00 0.00
2:15 pm 14:15 Mostly Cloudy 83 28.5 60 15.7 46 46 SW 15 24 30.06 1018 10 16 0.00 0.00
2:35 pm 14:35 Mostly Cloudy 85 29.5 61 15.9 44 44 SW 14 22 30.05 1017 10 16 0.00 0.00
2:55 pm 14:55 Partly Cloudy 85 29.2 60 15.6 44 44 SW 15 24 30.05 1017 10 16 0.00 0.00
3:15 pm 15:15 Partly Cloudy 83 28.5 60 15.4 45 45 SW 15 24 30.04 1017 10 16 0.00 0.00
3:35 pm 15:35 Partly Cloudy 83 28.1 60 15.5 46 46 WSW 13 20 30.04 1017 10 16 0.00 0.00
3:55 pm 15:55 Mostly Cloudy 82 27.7 60 15.6 48 48 SW 16 26 30.04 1017 10 16 0.00 0.00
4:15 pm 16:15 Mostly Cloudy 84 28.9 60 15.8 45 45 SSW 10 17 30.03 1017 10 16 0.00 0.00
4:35 pm 16:35 Mostly Cloudy 84 28.8 60 15.8 45 45 WSW 14 22 30.03 1017 10 16 0.00 0.00
4:55 pm 16:55 Mostly Cloudy 83 28.2 60 15.6 46 46 SW 14 22 30.02 1017 10 16 0.00 0.00
5:15 pm 17:15 Mostly Cloudy 84 29.1 60 15.6 44 44 WSW 13 20 30.01 1016 10 16 0.00 0.00
5:35 pm 17:35 Partly Cloudy 85 29.5 60 15.6 43 43 SW 14 22 30.00 1016 10 16 0.00 0.00
5:55 pm 17:55 Partly Cloudy 83 28.3 61 16.1 48 48 S 10 17 30.00 1016 10 16 0.00 0.00
6:15 pm 18:15 Mostly Cloudy 82 27.6 61 16.3 50 50 S 10 17 29.99 1016 10 16 0.00 0.00
6:35 pm 18:35 Mostly Cloudy 83 28.5 62 16.5 48 48 SSW 13 20 29.99 1016 10 16 0.00 0.00
6:55 pm 18:55 Mostly Cloudy 82 27.8 62 16.4 50 50 S 12 19 29.99 1016 10 16 0.00 0.00
7:15 pm 19:15 Mostly Cloudy 79 26 61 16 54 54 S 10 17 30.00 1016 10 16 0.00 0.00
7:35 pm 19:35 Partly Cloudy 78 25.6 62 16.5 57 57 S 5 7 29.99 1016 10 16 0.00 0.00
7:55 pm 19:55 Sunny 78 25.7 62 16.7 58 58 S 6 9 29.99 1015 10 16 0.00 0.00
8:15 pm 20:15 Sunny 79 26 63 17 58 58 SSE 6 9 29.99 1015 10 16 0.00 0.00
8:35 pm 20:35 Sunny 78 25.7 63 17.1 59 59 S 6 9 29.99 1015 10 16 0.00 0.00
8:55 pm 20:55 Sunny 77 24.9 63 17.1 62 62 S 6 9 29.99 1016 10 16 0.00 0.00
9:15 pm 21:15 Partly Cloudy 75 24.1 63 17 65 65 S 5 7 30.00 1016 10 16 0.00 0.00
9:35 pm 21:35 Mostly Cloudy 75 24.1 63 17 65 65 SSW 5 7 30.00 1016 10 16 0.00 0.00
9:55 pm 21:55 Mostly Cloudy 75 23.9 63 17 65 65 S 6 9 30.00 1016 10 16 0.00 0.00
10:15 pm 22:15 Cloudy 76 24.5 62 16.6 62 62 SSW 7 11 30.00 1016 10 16 0.00 0.00
10:35 pm 22:35 Cloudy 77 25 61 15.9 57 57 SSW 8 13 30.00 1016 10 16 0.00 0.00
10:55 pm 22:55 Cloudy 76 24.7 59 15.2 56 56 SSW 7 11 30.01 1016 10 16 0.00 0.00
11:15 pm 23:15 Cloudy 76 24.7 60 15.5 57 57 SSW 8 13 30.01 1016 10 16 0.00 0.00
11:35 pm 23:35 Partly Cloudy 75 23.8 60 15.6 60 60 S 6 9 30.00 1016 10 16 0.00 0.00
11:55 pm 23:55 Partly Cloudy 73 22.6 61 16 66 66 SSW 6 9 30.01 1016 10 16 0.00 0.00

Powered by AerisWeather